Terug naar catalogus

STARLINK-36971

ActiefCommunicatieSSO
NORAD 68165·PAYLOAD·🇺🇸 United States

Gelanceerd Mar 13, 2026 vanaf Vandenberg Space Force Base

Loading…

Volgende Passages (komende 24 uur)

TLE

VersSource: CelesTrak SupGP

Epoch: Sep 14, 2026, 23:00 UTC

1 68165C 26049Z   26257.95881944  .00043530  00000+0  13513-2 0  2573
2 68165  97.2838 278.0463 0001430  88.3131 327.7196 15.33416822    18

Volg STARLINK-36971 in realtime met AllMySat

Download on the App Store